• In Kazakhstan
  • List of Countries
  • For 7 days
  • Water Temperature
  • Satellite Maps
  • Weather Map
  • News
  • Weather Widgets
  • user-avatar
    Login

    Hourly Weather Ankara

    Today, 17 August, Thursday

    Time Temperature Precipitation Wind Pressure Humidity
    00:00 +24°C° 0.1 mm 3 mps 682 mmHg 65%
    01:00 +24°C° 0.1 mm 3 mps 682 mmHg 68%
    02:00 +22°C° 0 mm 3 mps 682 mmHg 71%
    03:00 +23°C° 0.1 mm 2 mps 682 mmHg 73%
    04:00 +21°C° 0.1 mm 2 mps 682 mmHg 74%
    05:00 +21°C° 0.1 mm 2 mps 682 mmHg 75%
    06:00 +23°C° 0.1 mm 2 mps 682 mmHg 69%
    07:00 +25°C° 0.1 mm 3 mps 682 mmHg 63%
    08:00 +26°C° 0 mm 3 mps 683 mmHg 56%
    09:00 +27°C° 0 mm 2 mps 683 mmHg 50%
    10:00 +29°C° 0 mm 2 mps 683 mmHg 43%
    11:00 +30°C° 0 mm 2 mps 683 mmHg 36%
    12:00 +31°C° 0 mm 2 mps 683 mmHg 35%
    13:00 +31°C° 0 mm 2 mps 683 mmHg 33%
    14:00 +32°C° 0 mm 2 mps 683 mmHg 31%
    15:00 +31°C° 0.1 mm 2 mps 682 mmHg 33%
    16:00 +31°C° 0.1 mm 3 mps 682 mmHg 35%
    17:00 +30°C° 0.1 mm 4 mps 682 mmHg 37%
    18:00 +29°C° 0.2 mm 4 mps 682 mmHg 41%
    19:00 +28°C° 0.2 mm 4 mps 682 mmHg 45%
    20:00 +27°C° 0.2 mm 4 mps 682 mmHg 49%
    21:00 +26°C° 0.1 mm 3 mps 683 mmHg 53%
    22:00 +25°C° 0.1 mm 3 mps 683 mmHg 56%
    23:00 +25°C° 0.1 mm 3 mps 683 mmHg 59%

    Tomorrow, 18 August, Friday

    Time Temperature Precipitation Wind Pressure Humidity
    00:00 +24°C° 0.4 mm 2 mps 683 mmHg 61%
    01:00 +24°C° 0.4 mm 2 mps 683 mmHg 63%
    02:00 +24°C° 0.4 mm 2 mps 683 mmHg 66%
    03:00 +23°C° 0.2 mm 2 mps 683 mmHg 67%
    04:00 +23°C° 0.2 mm 2 mps 683 mmHg 69%
    05:00 +21°C° 0.2 mm 2 mps 683 mmHg 71%
    06:00 +23°C° 0.3 mm 2 mps 683 mmHg 66%
    07:00 +24°C° 0.3 mm 2 mps 684 mmHg 62%
    08:00 +25°C° 0.3 mm 2 mps 684 mmHg 57%
    09:00 +27°C° 0.3 mm 2 mps 684 mmHg 51%
    10:00 +28°C° 0.3 mm 2 mps 684 mmHg 46%
    11:00 +29°C° 0.3 mm 2 mps 684 mmHg 41%
    12:00 +30°C° 0.1 mm 2 mps 684 mmHg 38%
    13:00 +31°C° 0.1 mm 2 mps 684 mmHg 35%
    14:00 +32°C° 0.1 mm 2 mps 684 mmHg 32%
    15:00 +32°C° 0.1 mm 2 mps 684 mmHg 33%
    16:00 +31°C° 0.1 mm 3 mps 684 mmHg 34%
    17:00 +31°C° 0.1 mm 3 mps 684 mmHg 34%
    18:00 +30°C° 0 mm 3 mps 684 mmHg 38%
    19:00 +29°C° 0 mm 3 mps 684 mmHg 42%
    20:00 +28°C° 0 mm 3 mps 684 mmHg 46%
    21:00 +27°C° 0 mm 3 mps 684 mmHg 50%
    22:00 +26°C° 0 mm 3 mps 684 mmHg 54%
    23:00 +25°C° 0 mm 2 mps 685 mmHg 57%

    Day after tomorrow, 19 August, Saturday

    Time Temperature Precipitation Wind Pressure Humidity
    00:00 +25°C° 0 mm 2 mps 684 mmHg 60%
    01:00 +24°C° 0 mm 2 mps 684 mmHg 63%
    02:00 +24°C° 0 mm 2 mps 684 mmHg 66%
    03:00 +23°C° 0 mm 2 mps 684 mmHg 67%
    04:00 +23°C° 0 mm 2 mps 684 mmHg 69%
    05:00 +21°C° 0 mm 2 mps 684 mmHg 71%
    06:00 +23°C° 0 mm 2 mps 684 mmHg 66%
    07:00 +24°C° 0 mm 2 mps 685 mmHg 62%
    08:00 +25°C° 0 mm 2 mps 685 mmHg 57%
    09:00 +27°C° 0.2 mm 2 mps 685 mmHg 51%
    10:00 +28°C° 0.2 mm 2 mps 685 mmHg 45%
    11:00 +30°C° 0.2 mm 2 mps 685 mmHg 39%
    12:00 +31°C° 0.1 mm 2 mps 685 mmHg 37%
    13:00 +31°C° 0.1 mm 2 mps 685 mmHg 34%
    14:00 +32°C° 0.1 mm 2 mps 685 mmHg 32%
    15:00 +32°C° 0 mm 2 mps 685 mmHg 32%
    16:00 +32°C° 0 mm 2 mps 685 mmHg 32%
    17:00 +32°C° 0 mm 2 mps 684 mmHg 32%
    18:00 +31°C° 0 mm 3 mps 685 mmHg 35%
    19:00 +30°C° 0 mm 3 mps 685 mmHg 38%
    20:00 +29°C° 0 mm 3 mps 685 mmHg 40%
    21:00 +28°C° 0 mm 2 mps 685 mmHg 44%
    22:00 +27°C° 0 mm 2 mps 685 mmHg 48%
    23:00 +26°C° 0 mm 2 mps 685 mmHg 51%

    20 August, Sunday

    Time Temperature Precipitation Wind Pressure Humidity
    00:00 +26°C° 0 mm 2 mps 685 mmHg 55%
    01:00 +25°C° 0 mm 2 mps 685 mmHg 58%
    02:00 +25°C° 0 mm 2 mps 685 mmHg 61%
    03:00 +24°C° 0 mm 2 mps 685 mmHg 63%
    04:00 +24°C° 0 mm 1 mps 685 mmHg 66%
    05:00 +23°C° 0 mm 1 mps 685 mmHg 69%
    06:00 +24°C° 0 mm 1 mps 685 mmHg 64%
    07:00 +25°C° 0 mm 1 mps 685 mmHg 59%
    08:00 +26°C° 0 mm 1 mps 685 mmHg 54%
    09:00 +28°C° 0 mm 1 mps 685 mmHg 48%
    10:00 +29°C° 0 mm 2 mps 685 mmHg 42%
    11:00 +30°C° 0 mm 2 mps 685 mmHg 36%
    12:00 +30°C° 0 mm 2 mps 685 mmHg 34%
    13:00 +31°C° 0 mm 2 mps 685 mmHg 32%
    14:00 +32°C° 0 mm 2 mps 684 mmHg 30%
    15:00 +32°C° 0 mm 2 mps 684 mmHg 30%
    16:00 +32°C° 0 mm 2 mps 684 mmHg 30%
    17:00 +32°C° 0 mm 2 mps 684 mmHg 30%
    18:00 +31°C° 0 mm 2 mps 684 mmHg 33%
    19:00 +30°C° 0 mm 2 mps 684 mmHg 36%
    20:00 +28°C° 0 mm 2 mps 684 mmHg 39%
    21:00 +28°C° 0 mm 2 mps 684 mmHg 42%
    22:00 +27°C° 0 mm 2 mps 684 mmHg 45%
    23:00 +26°C° 0 mm 2 mps 684 mmHg 49%

    21 August, Monday

    Time Temperature Precipitation Wind Pressure Humidity
    00:00 +26°C° 0 mm 2 mps 684 mmHg 52%
    01:00 +25°C° 0 mm 2 mps 683 mmHg 56%
    02:00 +25°C° 0 mm 2 mps 683 mmHg 60%
    03:00 +24°C° 0 mm 2 mps 683 mmHg 62%
    04:00 +24°C° 0 mm 2 mps 683 mmHg 65%
    05:00 +23°C° 0 mm 2 mps 683 mmHg 68%
    06:00 +25°C° 0 mm 2 mps 683 mmHg 62%
    07:00 +26°C° 0 mm 2 mps 683 mmHg 56%
    08:00 +27°C° 0 mm 2 mps 683 mmHg 51%
    09:00 +28°C° 0.1 mm 2 mps 683 mmHg 46%
    10:00 +30°C° 0.1 mm 3 mps 683 mmHg 41%
    11:00 +31°C° 0.1 mm 3 mps 683 mmHg 36%
    12:00 +30°C° 1.4 mm 3 mps 683 mmHg 40%
    13:00 +29°C° 1.4 mm 4 mps 682 mmHg 44%
    14:00 +28°C° 1.4 mm 4 mps 681 mmHg 48%
    15:00 +29°C° 0.2 mm 4 mps 682 mmHg 47%
    16:00 +29°C° 0.2 mm 4 mps 682 mmHg 46%
    17:00 +29°C° 0.2 mm 4 mps 682 mmHg 44%
    18:00 +28°C° 0 mm 3 mps 682 mmHg 48%
    19:00 +27°C° 0 mm 3 mps 682 mmHg 52%
    20:00 +26°C° 0 mm 3 mps 683 mmHg 56%
    21:00 +25°C° 0 mm 2 mps 683 mmHg 59%
    22:00 +24°C° 0 mm 2 mps 683 mmHg 62%
    23:00 +23°C° 0 mm 2 mps 683 mmHg 64%

    22 August, Tuesday

    Time Temperature Precipitation Wind Pressure Humidity
    00:00 +23°C° 0 mm 1 mps 683 mmHg 65%
    01:00 +22°C° 0 mm 1 mps 683 mmHg 66%
    02:00 +22°C° 0 mm 1 mps 683 mmHg 67%
    03:00 +22°C° 0 mm 1 mps 683 mmHg 68%
    04:00 +21°C° 0 mm 1 mps 683 mmHg 69%
    05:00 +21°C° 0 mm 1 mps 683 mmHg 70%
    06:00 +22°C° 0 mm 1 mps 683 mmHg 64%
    07:00 +23°C° 0 mm 1 mps 683 mmHg 58%
    08:00 +24°C° 0 mm 1 mps 684 mmHg 51%
    09:00 +26°C° 0 mm 2 mps 684 mmHg 45%
    10:00 +27°C° 0 mm 2 mps 684 mmHg 39%
    11:00 +28°C° 0 mm 3 mps 684 mmHg 33%
    12:00 +29°C° 0 mm 3 mps 684 mmHg 30%
    13:00 +30°C° 0 mm 4 mps 684 mmHg 27%
    14:00 +32°C° 0 mm 4 mps 684 mmHg 25%
    15:00 +30°C° 0 mm 5 mps 683 mmHg 27%
    16:00 +30°C° 0 mm 5 mps 683 mmHg 29%
    17:00 +29°C° 0 mm 5 mps 683 mmHg 31%
    18:00 +28°C° 0 mm 5 mps 683 mmHg 38%
    19:00 +26°C° 0 mm 5 mps 684 mmHg 45%
    20:00 +23°C° 0 mm 5 mps 684 mmHg 51%
    21:00 +22°C° 0 mm 5 mps 684 mmHg 55%
    22:00 +22°C° 0 mm 4 mps 684 mmHg 58%
    23:00 +21°C° 0 mm 4 mps 684 mmHg 61%
    Show more